Weather History for FVHA - August, 2013

Change the Weather History Date:

Tuesday, August 6, 2013

  Actual Average Record
Temperature  
Mean Temperature 56 °F -  
Max Temperature 69 °F 76 °F - ()
Min Temperature 43 °F 46 °F - ()
Degree Days  
Heating Degree Days 9    
Growing Degree Days 6 (Base 50)    
Moisture  
Dew Point 42 °F    
Average Humidity 59    
Maximum Humidity 100    
Minimum Humidity 21    
Precipitation  
Precipitation 0.00 in 0.00 in - ()
Sea Level Pressure  
Sea Level Pressure 30.25 in    
Wind  
Wind Speed 6 mph ()    
Max Wind Speed 16 mph    
Max Gust Speed -    
Visibility 9.9 miles    
Events      
T = Trace of Precipitation, MM = Missing Value Source: Averaged Metar Reports

Daily Weather History Graph

Daily Weather History Graph

Search for Another Location

Airport or City:

Trip Planner

Search our weather history database for the weather conditions in past years. The results will help you decide how hot, cold, wet, or windy it might be!

Date:

Astronomy

Aug. 06, 2013 Rise Set
Actual Time 6:19 AM CAT 5:42 PM CAT
Civil Twilight 5:57 AM CAT 6:05 PM CAT
Nautical Twilight 5:31 AM CAT 6:31 PM CAT
Astronomical Twilight 5:05 AM CAT 6:57 PM CAT
Moon 5:40 AM CAT (8/6) 5:26 PM CAT (8/6)
Length of Visible Light 12h 08m
Length of Day
11h 23m
Waning Crescent, 0% of the Moon is Illuminated
Aug 6
Waning Crescent
Aug 6
New
Aug 14
First Quarter
Aug 21
Full
Aug 28
Last Quarter

Hourly Weather History & Observations

Time (CAT) Temp. Windchill Dew Point Humidity Pressure Visibility Wind Dir Wind Speed Gust Speed Precip Events Conditions
1:00 AM 48.2 °F - 42.8 °F 82% 30.27 in - ESE 5.8 mph - N/A   Clear
2:00 AM 47 °F - 43 °F 82%  in 19 mi East 5.8 mph - -   Scattered Clouds
2:00 AM 46.4 °F 43.5 °F 42.8 °F 87% 30.27 in - East 5.8 mph - N/A   Clear
4:00 AM 42.8 °F 40.1 °F 42.8 °F 100% 30.24 in - East 4.6 mph - N/A   Clear
5:00 AM 46.4 °F 43.5 °F 44.6 °F 93% 30.24 in - East 5.8 mph - N/A   Clear
6:00 AM 46.4 °F 44.3 °F 42.8 °F 87% 30.27 in - SE 4.6 mph - N/A   Clear
7:00 AM 46.4 °F 44.3 °F 42.8 °F 87% 30.27 in - East 4.6 mph - N/A   Clear
8:00 AM 53 °F - 45 °F 67%  in 9 mi ESE 5.8 mph - -   Haze
8:00 AM 51.8 °F - 44.6 °F 76% 30.30 in - ESE 5.8 mph - N/A   Clear
9:00 AM 59.0 °F - 44.6 °F 59% 30.33 in - East 6.9 mph - N/A   Clear
10:00 AM 62.6 °F - 44.6 °F 52% 30.33 in 6.2 mi NE 10.4 mph - N/A   Partly Cloudy
11:00 AM 64.4 °F - 44.6 °F 49% 30.30 in 6.2 mi NE 9.2 mph - N/A   Scattered Clouds
12:00 PM 66.2 °F - 42.8 °F 43% 30.30 in 6.2 mi ENE 5.8 mph - N/A   Mostly Cloudy
1:00 PM 66.2 °F - 33.8 °F 30% 30.24 in 6.2 mi Variable 5.8 mph - N/A   Mostly Cloudy
2:00 PM 69 °F - 38 °F 21%  in 19 mi ENE 15.7 mph - -   Partly Cloudy
2:00 PM 68.0 °F - 37.4 °F 33% 30.21 in 6.2 mi ENE 8.1 mph - N/A   Scattered Clouds
3:00 PM 68.0 °F - 37.4 °F 33% 30.18 in 6.2 mi SSW 3.5 mph - N/A   Mostly Cloudy
4:00 PM 68.0 °F - 39.2 °F 35% 30.18 in 6.2 mi ENE 6.9 mph - N/A   Scattered Clouds
5:00 PM 64.4 °F - 39.2 °F 40% 30.21 in - North 4.6 mph - N/A   Clear
6:00 PM 59.0 °F - 39.2 °F 48% 30.18 in - NNE 4.6 mph - N/A   Clear
7:00 PM 59.0 °F - 41.0 °F 51% 30.21 in - East 6.9 mph - N/A   Clear
8:00 PM 56 °F - 41 °F 45%  in 19 mi East 5.8 mph - -   Mostly Cloudy
8:00 PM 57.2 °F - 41.0 °F 55% 30.24 in - East 5.8 mph - N/A   Clear
10:00 PM 55.4 °F - 41.0 °F 58% 30.24 in - East 6.9 mph - N/A   Clear
11:00 PM 55.4 °F - 42.8 °F 63% 30.24 in - ENE 6.9 mph - N/A   Clear